This demonstration page uses our WeatherBlox Daily Observations layout. Learn more.

Left ArrowRight Arrow

Hourly Observations for July 25, 2018

Temp ( °F °C ) Dew Point ( °F °C ) Humidity (%) Winds ( mph kmh ) Pressure ( in mb ) Visibility ( mi km ) Precip ( " mm )
12:59 am 00:59 Mostly Cloudy 74 23.3 72 22.2 94 94 SSE 3 6 30.01 1016 10 16 0.00 0.00
1:59 am 01:59 Cloudy 74 23.3 72 22.2 94 94 SSE 5 7 30.01 1016 10 16 0.00 0.00
2:59 am 02:59 Mostly Cloudy 74 23.3 72 22.2 94 94 SSE 3 6 30.00 1016 10 16 0.00 0.00
3:47 am 03:47 Cloudy 75 23.9 73 22.8 94 94 Calm 30.00 1016 10 16 0.00 0.00
3:59 am 03:59 Cloudy 75 23.9 72 22.2 90 90 S 3 6 30.00 1016 10 16 0.00 0.00
4:59 am 04:59 Mostly Cloudy 75 23.9 72 22.2 90 90 SSE 3 6 29.99 1016 9 14 0.00 0.00
5:59 am 05:59 Mostly Cloudy 75 23.9 73 22.8 94 94 SSE 3 6 29.98 1015 9 14 0.00 0.03
6:59 am 06:59 Mostly Cloudy 75 23.9 73 22.8 94 94 SE 5 7 29.98 1015 8 13 0.00 0.00
7:59 am 07:59 Cloudy 77 25 74 23.3 90 90 SSE 7 11 29.97 1015 9 14 0.00 0.00
8:39 am 08:39 Cloudy with Light Rain 76 24.4 74 23.3 94 94 S 10 17 30.00 1016 4 6 0.08 2.03
8:59 am 08:59 Cloudy with Light Rain 73 22.8 70 21.1 90 90 S 8 13 29.99 1016 5 8 0.23 5.84
9:59 am 09:59 Cloudy with Light Rain 75 23.9 73 22.8 94 94 S 5 7 29.98 1015 10 16 0.01 0.25
10:27 am 10:27 Cloudy 77 25 73 22.8 88 88 SSE 7 11 29.97 1015 10 16 0.00 0.03
10:59 am 10:59 Cloudy 77 25 74 23.3 90 90 S 8 13 29.98 1015 10 16 0.00 0.03
11:59 am 11:59 Cloudy 79 26.1 73 22.8 82 82 VRB 7 11 29.98 1015 10 16 0.00 0.00
12:59 pm 12:59 Cloudy 79 26.1 72 22.2 79 79 S 6 9 29.96 1015 10 16 0.00 0.00
1:49 pm 13:49 Mostly Cloudy 79 26.1 72 22.2 79 79 SSE 10 17 29.94 1014 10 16 0.00 0.00
1:59 pm 13:59 Mostly Cloudy 80 26.7 72 22.2 76 76 SSE 9 15 29.93 1013 10 16 0.00 0.00
2:22 pm 14:22 Mostly Cloudy 80 26.7 72 22.2 76 76 SSE 8 13 29.91 1013 10 16 0.00 0.00
2:59 pm 14:59 Mostly Cloudy 82 27.8 72 22.2 72 72 S 7 11 29.91 1013 10 16 0.00 0.00
3:59 pm 15:59 Mostly Cloudy 82 27.8 71 21.7 69 69 SSE 8 13 29.89 1012 10 16 0.00 0.00
4:59 pm 16:59 Mostly Cloudy 82 27.8 72 22.2 72 72 SSW 10 17 29.88 1012 10 16 0.00 0.00
5:59 pm 17:59 Mostly Cloudy 81 27.2 72 22.2 74 74 SE 6 9 29.88 1012 10 16 0.00 0.00
6:59 pm 18:59 Mostly Cloudy with Light Rain 78 25.6 72 22.2 82 82 SSW 6 9 29.88 1012 9 14 0.01 0.25
7:59 pm 19:59 Mostly Cloudy 77 25 73 22.8 88 88 SSW 5 7 29.90 1013 10 16 0.00 0.03
8:59 pm 20:59 Mostly Cloudy 77 25 73 22.8 88 88 S 3 6 29.91 1013 10 16 0.00 0.00
9:59 pm 21:59 Cloudy with Light Rain 77 25 73 22.8 88 88 S 5 7 29.92 1013 4 6 0.06 1.52
10:04 pm 22:04 Cloudy with Rain 77 25 72 22.2 85 85 SSW 8 13 29.94 1014 3 5 0.02 0.51
10:11 pm 22:11 Cloudy with Thunderstorms 76 24.4 72 22.2 88 88 SSW 12 19 29.94 1014 3 5 0.12 3.05
10:22 pm 22:22 Cloudy with Light Rain 74 23.3 72 22.2 94 94 SSE 6 9 29.91 1013 3 5 0.22 5.59
10:59 pm 22:59 Mostly Cloudy with Light Rain 74 23.3 72 22.2 94 94 SSW 3 6 29.92 1013 7 11 0.22 5.59
11:59 pm 23:59 Mostly Cloudy 75 23.9 72 22.2 90 90 SSW 6 9 29.91 1013 10 16 0.00 0.03

Powered by AerisWeather